• In Uzbekistan
  • List of Countries
  • For 7 days
  • Water Temperature
  • Satellite Maps
  • Weather Map
  • Weather Widgets
  • user-avatar
    Login

    Hourly Weather Mirnyy

    Today, 16 July, Monday

    Time Temperature Precipitation Wind Pressure Humidity
    00:00 +21°C° 1.2 mm 2 mps 739 mmHg 87%
    01:00 +20°C° 0.2 mm 2 mps 739 mmHg 88%
    02:00 +20°C° 0.2 mm 2 mps 739 mmHg 88%
    03:00 +20°C° 0 mm 2 mps 739 mmHg 89%
    04:00 +20°C° 0.5 mm 2 mps 739 mmHg 89%
    05:00 +20°C° 0.5 mm 2 mps 739 mmHg 89%
    06:00 +21°C° 0.5 mm 3 mps 739 mmHg 89%
    07:00 +22°C° 0.3 mm 3 mps 739 mmHg 85%
    08:00 +25°C° 0.3 mm 3 mps 739 mmHg 80%
    09:00 +27°C° 0.3 mm 4 mps 739 mmHg 75%
    10:00 +28°C° 0.8 mm 4 mps 739 mmHg 69%
    11:00 +29°C° 0.8 mm 5 mps 738 mmHg 64%
    12:00 +30°C° 0.8 mm 5 mps 738 mmHg 58%
    13:00 +30°C° 0.8 mm 5 mps 738 mmHg 59%
    14:00 +30°C° 0.8 mm 5 mps 738 mmHg 60%
    15:00 +30°C° 0.8 mm 5 mps 738 mmHg 61%
    16:00 +29°C° 1.2 mm 5 mps 737 mmHg 66%
    17:00 +28°C° 1.2 mm 4 mps 737 mmHg 70%
    18:00 +27°C° 1.2 mm 3 mps 737 mmHg 75%
    19:00 +26°C° 0.5 mm 3 mps 737 mmHg 78%
    20:00 +25°C° 0.5 mm 4 mps 737 mmHg 81%
    21:00 +23°C° 0.5 mm 4 mps 737 mmHg 84%
    22:00 +22°C° 0.4 mm 4 mps 737 mmHg 86%
    23:00 +22°C° 0.4 mm 4 mps 736 mmHg 89%

    Tomorrow, 17 July, Tuesday

    Time Temperature Precipitation Wind Pressure Humidity
    00:00 +21°C° 0.4 mm 4 mps 736 mmHg 91%
    01:00 +21°C° 0.2 mm 4 mps 736 mmHg 92%
    02:00 +21°C° 0.2 mm 4 mps 736 mmHg 93%
    03:00 +20°C° 0.2 mm 4 mps 736 mmHg 94%
    04:00 +20°C° 0.1 mm 4 mps 736 mmHg 94%
    05:00 +20°C° 0.1 mm 4 mps 736 mmHg 93%
    06:00 +20°C° 0.1 mm 4 mps 736 mmHg 92%
    07:00 +21°C° 0.4 mm 4 mps 735 mmHg 92%
    08:00 +21°C° 0.4 mm 4 mps 735 mmHg 91%
    09:00 +21°C° 0.4 mm 4 mps 735 mmHg 91%
    10:00 +22°C° 0.3 mm 5 mps 735 mmHg 87%
    11:00 +23°C° 0.3 mm 5 mps 735 mmHg 83%
    12:00 +23°C° 0.3 mm 6 mps 735 mmHg 80%
    13:00 +23°C° 0.5 mm 6 mps 734 mmHg 80%
    14:00 +23°C° 0.5 mm 6 mps 734 mmHg 81%
    15:00 +23°C° 0.5 mm 6 mps 734 mmHg 82%
    16:00 +23°C° 0.6 mm 5 mps 734 mmHg 85%
    17:00 +22°C° 0.6 mm 5 mps 733 mmHg 87%
    18:00 +21°C° 0.6 mm 5 mps 733 mmHg 90%
    19:00 +21°C° 0.4 mm 5 mps 733 mmHg 92%
    20:00 +21°C° 0.4 mm 5 mps 733 mmHg 93%
    21:00 +20°C° 0.4 mm 5 mps 733 mmHg 94%
    22:00 +20°C° 0.3 mm 5 mps 732 mmHg 95%
    23:00 +20°C° 0.3 mm 4 mps 732 mmHg 95%

    Day after tomorrow, 18 July, Wednesday

    Time Temperature Precipitation Wind Pressure Humidity
    00:00 +19°C° 0.3 mm 4 mps 732 mmHg 96%
    01:00 +19°C° 0.2 mm 4 mps 731 mmHg 96%
    02:00 +19°C° 0.2 mm 3 mps 731 mmHg 96%
    03:00 +19°C° 0.2 mm 3 mps 731 mmHg 97%
    04:00 +19°C° 0.1 mm 3 mps 731 mmHg 96%
    05:00 +19°C° 0.1 mm 2 mps 731 mmHg 96%
    06:00 +18°C° 0.1 mm 2 mps 731 mmHg 96%
    07:00 +19°C° 0.1 mm 2 mps 731 mmHg 94%
    08:00 +19°C° 0.1 mm 2 mps 731 mmHg 91%
    09:00 +20°C° 0.1 mm 2 mps 731 mmHg 89%
    10:00 +21°C° 0.3 mm 2 mps 732 mmHg 86%
    11:00 +21°C° 0.3 mm 2 mps 732 mmHg 83%
    12:00 +23°C° 0.3 mm 2 mps 732 mmHg 80%
    13:00 +22°C° 0.9 mm 3 mps 732 mmHg 80%
    14:00 +24°C° 0.9 mm 3 mps 732 mmHg 79%
    15:00 +23°C° 0.9 mm 4 mps 733 mmHg 79%
    16:00 +23°C° 0.8 mm 4 mps 733 mmHg 81%
    17:00 +22°C° 0.8 mm 5 mps 733 mmHg 83%
    18:00 +22°C° 0.8 mm 5 mps 733 mmHg 86%
    19:00 +21°C° 0.4 mm 5 mps 733 mmHg 88%
    20:00 +20°C° 0.4 mm 5 mps 733 mmHg 90%
    21:00 +19°C° 0.4 mm 5 mps 734 mmHg 93%
    22:00 +19°C° 0.4 mm 4 mps 734 mmHg 93%
    23:00 +19°C° 0.4 mm 4 mps 734 mmHg 94%

    19 July, Thursday

    Time Temperature Precipitation Wind Pressure Humidity
    00:00 +19°C° 0.4 mm 4 mps 734 mmHg 94%
    01:00 +19°C° 0.1 mm 4 mps 734 mmHg 94%
    02:00 +19°C° 0.1 mm 4 mps 734 mmHg 95%
    03:00 +19°C° 0.1 mm 4 mps 734 mmHg 95%
    04:00 +19°C° 0.1 mm 4 mps 734 mmHg 95%
    05:00 +19°C° 0.1 mm 4 mps 734 mmHg 95%
    06:00 +19°C° 0.1 mm 4 mps 735 mmHg 95%
    07:00 +20°C° 0.1 mm 4 mps 735 mmHg 94%
    08:00 +20°C° 0.1 mm 4 mps 735 mmHg 93%
    09:00 +21°C° 0.1 mm 4 mps 736 mmHg 91%
    10:00 +22°C° 0.2 mm 4 mps 736 mmHg 88%
    11:00 +23°C° 0.2 mm 4 mps 736 mmHg 85%
    12:00 +25°C° 0.2 mm 5 mps 736 mmHg 81%
    13:00 +25°C° 0.7 mm 5 mps 737 mmHg 79%
    14:00 +26°C° 0.7 mm 5 mps 737 mmHg 77%
    15:00 +26°C° 0.7 mm 6 mps 737 mmHg 75%
    16:00 +26°C° 0.9 mm 5 mps 737 mmHg 77%
    17:00 +26°C° 0.9 mm 5 mps 737 mmHg 79%
    18:00 +26°C° 0.9 mm 4 mps 737 mmHg 81%
    19:00 +25°C° 0.2 mm 4 mps 738 mmHg 84%
    20:00 +24°C° 0.2 mm 3 mps 738 mmHg 86%
    21:00 +22°C° 0.2 mm 3 mps 738 mmHg 89%
    22:00 +21°C° 0.1 mm 3 mps 738 mmHg 90%
    23:00 +20°C° 0.1 mm 3 mps 738 mmHg 91%

    20 July, Friday

    Time Temperature Precipitation Wind Pressure Humidity
    00:00 +20°C° 0.1 mm 3 mps 738 mmHg 92%
    01:00 +20°C° 0 mm 3 mps 739 mmHg 93%
    02:00 +20°C° 0 mm 2 mps 739 mmHg 93%
    03:00 +19°C° 0 mm 2 mps 739 mmHg 93%
    04:00 +20°C° 0.5 mm 3 mps 739 mmHg 93%
    05:00 +20°C° 0.5 mm 3 mps 739 mmHg 93%
    06:00 +20°C° 0.5 mm 3 mps 739 mmHg 92%
    07:00 +22°C° 0.2 mm 3 mps 740 mmHg 88%
    08:00 +24°C° 0.2 mm 3 mps 740 mmHg 83%
    09:00 +26°C° 0.2 mm 3 mps 740 mmHg 78%
    10:00 +26°C° 0.9 mm 4 mps 740 mmHg 75%
    11:00 +27°C° 0.9 mm 4 mps 740 mmHg 71%
    12:00 +28°C° 0.9 mm 4 mps 740 mmHg 67%
    13:00 +29°C° 0.1 mm 4 mps 740 mmHg 65%
    14:00 +29°C° 0.1 mm 3 mps 740 mmHg 62%
    15:00 +30°C° 0.1 mm 3 mps 740 mmHg 60%
    16:00 +29°C° 0.7 mm 2 mps 740 mmHg 64%
    17:00 +29°C° 0.7 mm 2 mps 740 mmHg 69%
    18:00 +28°C° 0.7 mm 2 mps 740 mmHg 74%
    19:00 +27°C° 0.1 mm 1 mps 740 mmHg 78%
    20:00 +25°C° 0.1 mm 1 mps 740 mmHg 81%
    21:00 +24°C° 0.1 mm 1 mps 739 mmHg 85%
    22:00 +23°C° 0.1 mm 1 mps 740 mmHg 86%
    23:00 +23°C° 0.1 mm 2 mps 740 mmHg 87%

    21 July, Saturday

    Time Temperature Precipitation Wind Pressure Humidity
    00:00 +21°C° 0.1 mm 2 mps 740 mmHg 88%
    01:00 +21°C° 0.1 mm 2 mps 740 mmHg 90%
    02:00 +21°C° 0.1 mm 2 mps 740 mmHg 91%
    03:00 +20°C° 0.1 mm 3 mps 740 mmHg 93%
    04:00 +20°C° 0 mm 3 mps 740 mmHg 92%
    05:00 +21°C° 0 mm 3 mps 740 mmHg 91%
    06:00 +21°C° 0 mm 2 mps 740 mmHg 91%
    07:00 +24°C° 0.1 mm 2 mps 740 mmHg 84%
    08:00 +25°C° 0.1 mm 2 mps 740 mmHg 78%
    09:00 +27°C° 0.1 mm 2 mps 740 mmHg 72%
    10:00 +28°C° 0.7 mm 2 mps 740 mmHg 67%
    11:00 +29°C° 0.7 mm 2 mps 740 mmHg 62%
    12:00 +30°C° 0.7 mm 2 mps 740 mmHg 57%
    13:00 +30°C° 0.2 mm 2 mps 740 mmHg 56%
    14:00 +30°C° 0.2 mm 3 mps 740 mmHg 56%
    15:00 +31°C° 0.2 mm 3 mps 740 mmHg 55%
    16:00 +30°C° 0.1 mm 3 mps 740 mmHg 59%
    17:00 +30°C° 0.1 mm 2 mps 740 mmHg 63%
    18:00 +30°C° 0.1 mm 2 mps 739 mmHg 67%
    19:00 +28°C° 0.7 mm 2 mps 739 mmHg 72%
    20:00 +26°C° 0.7 mm 2 mps 739 mmHg 77%
    21:00 +24°C° 0.7 mm 2 mps 739 mmHg 82%
    22:00 +24°C° 0.5 mm 2 mps 739 mmHg 84%
    23:00 +23°C° 0.5 mm 2 mps 739 mmHg 87%
    Show more